contact:dominique.lefevre@mio.osupytheas.fr, maurice.libes@osupytheas.fr, didier.mallarino@osupytheas.fr
Project:EMSO http://www.emso-fr.org/EMSO-France
Depth: 2436.0 m
Title:EMSO Ligure Ouest : Data MII capteur MICROCAT
DateTime_Computer,Latitude,Longitude,Temperature,Conductivity,Pressure,DateTime_Instrument
DateTime_Computer,Latitude,Longitude,degC,S m-1,dbar,DateTime_Instrument
2023-07-01T00:02:50Z,42.805,6.029,13.3024,4.60084,2470.646,2023-7-01T02:05:06Z
2023-07-01T00:05:53Z,42.805,6.029,13.3029,4.60084,2470.707,2023-7-01T02:08:09Z
2023-07-01T00:08:56Z,42.805,6.029,13.3030,4.60085,2470.693,2023-7-01T02:11:12Z
2023-07-01T00:11:59Z,42.805,6.029,13.3029,4.60085,2470.707,2023-7-01T02:14:15Z
2023-07-01T00:15:03Z,42.805,6.029,13.3029,4.60086,2470.693,2023-7-01T02:17:18Z
2023-07-01T00:18:06Z,42.805,6.029,13.3031,4.60086,2470.693,2023-7-01T02:20:21Z
2023-07-01T00:21:09Z,42.805,6.029,13.3030,4.60086,2470.684,2023-7-01T02:23:24Z
2023-07-01T00:24:12Z,42.805,6.029,13.3025,4.60086,2470.67,2023-7-01T02:26:27Z
2023-07-01T00:27:15Z,42.805,6.029,13.3031,4.60086,2470.661,2023-7-01T02:29:30Z
2023-07-01T00:30:18Z,42.805,6.029,13.3033,4.60087,2470.707,2023-7-01T02:32:33Z
2023-07-01T00:33:21Z,42.805,6.029,13.3033,4.60087,2470.693,2023-7-01T02:35:37Z
2023-07-01T00:36:24Z,42.805,6.029,13.3031,4.60087,2470.717,2023-7-01T02:38:40Z
2023-07-01T00:39:27Z,42.805,6.029,13.3028,4.60087,2470.67,2023-7-01T02:41:43Z
2023-07-01T00:42:30Z,42.805,6.029,13.3030,4.60088,2470.707,2023-7-01T02:44:46Z
2023-07-01T00:45:33Z,42.805,6.029,13.3032,4.60089,2470.707,2023-7-01T02:47:49Z
2023-07-01T00:48:36Z,42.805,6.029,13.3026,4.60089,2470.693,2023-7-01T02:50:52Z
2023-07-01T00:51:40Z,42.805,6.029,13.3031,4.60089,2470.693,2023-7-01T02:53:55Z
2023-07-01T00:54:43Z,42.805,6.029,13.3029,4.60090,2470.693,2023-7-01T02:56:58Z
2023-07-01T00:57:46Z,42.805,6.029,13.3029,4.60090,2470.693,2023-7-01T03:00:01Z
2023-07-01T01:00:49Z,42.805,6.029,13.3031,4.60091,2470.717,2023-7-01T03:03:04Z
2023-07-01T01:03:52Z,42.805,6.029,13.3032,4.60090,2470.67,2023-7-01T03:06:07Z
2023-07-01T01:06:55Z,42.805,6.029,13.3031,4.60092,2470.67,2023-7-01T03:09:10Z
2023-07-01T01:09:58Z,42.805,6.029,13.3029,4.60091,2470.67,2023-7-01T03:12:13Z
2023-07-01T01:13:01Z,42.805,6.029,13.3034,4.60090,2470.717,2023-7-01T03:15:16Z
2023-07-01T01:16:04Z,42.805,6.029,13.3034,4.60092,2470.73,2023-7-01T03:18:20Z
2023-07-01T01:19:07Z,42.805,6.029,13.3032,4.60090,2470.693,2023-7-01T03:21:23Z
2023-07-01T01:22:10Z,42.805,6.029,13.3030,4.60091,2470.717,2023-7-01T03:24:26Z
2023-07-01T01:25:13Z,42.805,6.029,13.3034,4.60090,2470.717,2023-7-01T03:27:29Z
2023-07-01T01:28:16Z,42.805,6.029,13.3032,4.60090,2470.67,2023-7-01T03:30:32Z
2023-07-01T01:31:20Z,42.805,6.029,13.3031,4.60089,2470.693,2023-7-01T03:33:35Z
2023-07-01T01:34:23Z,42.805,6.029,13.3029,4.60088,2470.707,2023-7-01T03:36:38Z
2023-07-01T01:37:26Z,42.805,6.029,13.3029,4.60090,2470.717,2023-7-01T03:39:41Z
2023-07-01T01:40:29Z,42.805,6.029,13.3029,4.60089,2470.693,2023-7-01T03:42:44Z
2023-07-01T01:43:32Z,42.805,6.029,13.3031,4.60088,2470.693,2023-7-01T03:45:47Z
2023-07-01T01:46:35Z,42.805,6.029,13.3027,4.60089,2470.73,2023-7-01T03:48:50Z
2023-07-01T01:49:38Z,42.805,6.029,13.3036,4.60087,2470.717,2023-7-01T03:51:53Z
2023-07-01T01:52:41Z,42.805,6.029,13.3027,4.60086,2470.717,2023-7-01T03:54:57Z
2023-07-01T01:55:44Z,42.805,6.029,13.3029,4.60085,2470.693,2023-7-01T03:58:00Z
2023-07-01T01:58:47Z,42.805,6.029,13.3029,4.60085,2470.693,2023-7-01T04:01:03Z
2023-07-01T02:01:50Z,42.805,6.029,13.3024,4.60087,2470.693,2023-7-01T04:04:06Z
2023-07-01T02:04:53Z,42.805,6.029,13.3027,4.60084,2470.73,2023-7-01T04:07:09Z
2023-07-01T02:07:56Z,42.805,6.029,13.3025,4.60086,2470.73,2023-7-01T04:10:12Z
2023-07-01T02:11:00Z,42.805,6.029,13.3026,4.60085,2470.707,2023-7-01T04:13:15Z
2023-07-01T02:14:03Z,42.805,6.029,13.3031,4.60085,2470.74,2023-7-01T04:16:18Z
2023-07-01T02:17:06Z,42.805,6.029,13.3026,4.60086,2470.693,2023-7-01T04:19:21Z
2023-07-01T02:20:09Z,42.805,6.029,13.3031,4.60087,2470.73,2023-7-01T04:22:24Z
2023-07-01T02:23:12Z,42.805,6.029,13.3029,4.60087,2470.717,2023-7-01T04:25:27Z
2023-07-01T02:26:15Z,42.805,6.029,13.3026,4.60087,2470.717,2023-7-01T04:28:30Z
2023-07-01T02:29:18Z,42.805,6.029,13.3031,4.60087,2470.693,2023-7-01T04:31:33Z
2023-07-01T02:32:21Z,42.805,6.029,13.3029,4.60085,2470.726,2023-7-01T04:34:37Z
2023-07-01T02:35:24Z,42.805,6.029,13.3026,4.60086,2470.74,2023-7-01T04:37:40Z
2023-07-01T02:38:27Z,42.805,6.029,13.3029,4.60087,2470.73,2023-7-01T04:40:43Z
2023-07-01T02:41:30Z,42.805,6.029,13.3029,4.60086,2470.74,2023-7-01T04:43:46Z
2023-07-01T02:44:33Z,42.805,6.029,13.3031,4.60085,2470.777,2023-7-01T04:46:49Z
2023-07-01T02:47:36Z,42.805,6.029,13.3031,4.60086,2470.754,2023-7-01T04:49:52Z
2023-07-01T02:50:40Z,42.805,6.029,13.3032,4.60087,2470.754,2023-7-01T04:52:55Z
2023-07-01T02:53:43Z,42.805,6.029,13.3030,4.60087,2470.74,2023-7-01T04:55:58Z
2023-07-01T02:56:46Z,42.805,6.029,13.3026,4.60085,2470.754,2023-7-01T04:59:01Z
2023-07-01T02:59:49Z,42.805,6.029,13.3029,4.60085,2470.74,2023-7-01T05:02:04Z
2023-07-01T03:02:52Z,42.805,6.029,13.3028,4.60085,2470.763,2023-7-01T05:05:07Z
2023-07-01T03:05:55Z,42.805,6.029,13.3029,4.60086,2470.74,2023-7-01T05:08:10Z
2023-07-01T03:08:58Z,42.805,6.029,13.3026,4.60086,2470.763,2023-7-01T05:11:13Z
2023-07-01T03:12:01Z,42.805,6.029,13.3026,4.60087,2470.763,2023-7-01T05:14:17Z
2023-07-01T03:15:04Z,42.805,6.029,13.3028,4.60086,2470.73,2023-7-01T05:17:20Z
2023-07-01T03:18:07Z,42.805,6.029,13.3028,4.60086,2470.754,2023-7-01T05:20:23Z
2023-07-01T03:21:10Z,42.805,6.029,13.3027,4.60087,2470.754,2023-7-01T05:23:26Z
2023-07-01T03:24:13Z,42.805,6.029,13.3029,4.60087,2470.717,2023-7-01T05:26:29Z
2023-07-01T03:27:16Z,42.805,6.029,13.3031,4.60087,2470.763,2023-7-01T05:29:32Z
2023-07-01T03:30:20Z,42.805,6.029,13.3025,4.60087,2470.754,2023-7-01T05:32:35Z
2023-07-01T03:33:23Z,42.805,6.029,13.3028,4.60086,2470.777,2023-7-01T05:35:38Z
2023-07-01T03:36:26Z,42.805,6.029,13.3030,4.60084,2470.754,2023-7-01T05:38:41Z
2023-07-01T03:39:29Z,42.805,6.029,13.3030,4.60086,2470.74,2023-7-01T05:41:44Z
2023-07-01T03:42:32Z,42.805,6.029,13.3029,4.60086,2470.787,2023-7-01T05:44:47Z
2023-07-01T03:45:35Z,42.805,6.029,13.3025,4.60086,2470.754,2023-7-01T05:47:50Z
2023-07-01T03:48:38Z,42.805,6.029,13.3032,4.60086,2470.763,2023-7-01T05:50:54Z
2023-07-01T03:51:41Z,42.805,6.029,13.3028,4.60087,2470.74,2023-7-01T05:53:57Z
2023-07-01T03:54:44Z,42.805,6.029,13.3029,4.60087,2470.763,2023-7-01T05:57:00Z
2023-07-01T03:57:47Z,42.805,6.029,13.3029,4.60087,2470.74,2023-7-01T06:00:03Z
2023-07-01T04:00:50Z,42.805,6.029,13.3030,4.60087,2470.754,2023-7-01T06:03:06Z
2023-07-01T04:03:53Z,42.805,6.029,13.3033,4.60089,2470.763,2023-7-01T06:06:09Z
2023-07-01T04:06:57Z,42.805,6.029,13.3029,4.60087,2470.763,2023-7-01T06:09:12Z
2023-07-01T04:10:00Z,42.805,6.029,13.3030,4.60088,2470.74,2023-7-01T06:12:15Z
2023-07-01T04:13:03Z,42.805,6.029,13.3029,4.60089,2470.787,2023-7-01T06:15:18Z
2023-07-01T04:16:06Z,42.805,6.029,13.3032,4.60087,2470.777,2023-7-01T06:18:21Z
2023-07-01T04:19:09Z,42.805,6.029,13.3029,4.60087,2470.74,2023-7-01T06:21:24Z
2023-07-01T04:22:12Z,42.805,6.029,13.3030,4.60087,2470.787,2023-7-01T06:24:27Z
2023-07-01T04:25:15Z,42.805,6.029,13.3031,4.60088,2470.8,2023-7-01T06:27:30Z
2023-07-01T04:28:18Z,42.805,6.029,13.3031,4.60088,2470.777,2023-7-01T06:30:34Z
2023-07-01T04:31:21Z,42.805,6.029,13.3031,4.60088,2470.763,2023-7-01T06:33:37Z
2023-07-01T04:34:24Z,42.805,6.029,13.3029,4.60088,2470.754,2023-7-01T06:36:40Z
2023-07-01T04:37:27Z,42.805,6.029,13.3031,4.60088,2470.8,2023-7-01T06:39:43Z
2023-07-01T04:40:30Z,42.805,6.029,13.3031,4.60088,2470.763,2023-7-01T06:42:46Z
2023-07-01T04:43:33Z,42.805,6.029,13.3031,4.60088,2470.763,2023-7-01T06:45:49Z
2023-07-01T04:46:37Z,42.805,6.029,13.3032,4.60089,2470.754,2023-7-01T06:48:52Z
2023-07-01T04:49:40Z,42.805,6.029,13.3031,4.60089,2470.763,2023-7-01T06:51:55Z
2023-07-01T04:52:43Z,42.805,6.029,13.3030,4.60089,2470.763,2023-7-01T06:54:58Z
2023-07-01T04:55:46Z,42.805,6.029,13.3031,4.60090,2470.8,2023-7-01T06:58:01Z
2023-07-01T04:58:49Z,42.805,6.029,13.3030,4.60091,2470.787,2023-7-01T07:01:04Z
2023-07-01T05:01:52Z,42.805,6.029,13.3034,4.60089,2470.763,2023-7-01T07:04:07Z
2023-07-01T05:04:55Z,42.805,6.029,13.3029,4.60090,2470.74,2023-7-01T07:07:10Z
2023-07-01T05:07:58Z,42.805,6.029,13.3034,4.60089,2470.763,2023-7-01T07:10:14Z
2023-07-01T05:11:01Z,42.805,6.029,13.3036,4.60089,2470.8,2023-7-01T07:13:17Z
2023-07-01T05:14:04Z,42.805,6.029,13.3030,4.60089,2470.787,2023-7-01T07:16:20Z
2023-07-01T05:17:07Z,42.805,6.029,13.3032,4.60089,2470.787,2023-7-01T07:19:23Z
2023-07-01T05:20:10Z,42.805,6.029,13.3031,4.60089,2470.763,2023-7-01T07:22:26Z
2023-07-01T05:23:13Z,42.805,6.029,13.3033,4.60091,2470.8,2023-7-01T07:25:29Z
2023-07-01T05:26:17Z,42.805,6.029,13.3033,4.60088,2470.787,2023-7-01T07:28:32Z
2023-07-01T05:29:20Z,42.805,6.029,13.3030,4.60089,2470.8,2023-7-01T07:31:35Z
2023-07-01T05:32:23Z,42.805,6.029,13.3030,4.60089,2470.763,2023-7-01T07:34:38Z
2023-07-01T05:35:26Z,42.805,6.029,13.3029,4.60088,2470.763,2023-7-01T07:37:41Z
2023-07-01T05:38:29Z,42.805,6.029,13.3030,4.60088,2470.763,2023-7-01T07:40:44Z
2023-07-01T05:41:32Z,42.805,6.029,13.3031,4.60087,2470.8,2023-7-01T07:43:47Z
2023-07-01T05:44:35Z,42.805,6.029,13.3029,4.60088,2470.763,2023-7-01T07:46:51Z
2023-07-01T05:47:38Z,42.805,6.029,13.3031,4.60087,2470.763,2023-7-01T07:49:54Z
2023-07-01T05:50:41Z,42.805,6.029,13.3033,4.60087,2470.763,2023-7-01T07:52:57Z
2023-07-01T05:53:44Z,42.805,6.029,13.3030,4.60087,2470.787,2023-7-01T07:56:00Z
2023-07-01T05:56:47Z,42.805,6.029,13.3024,4.60086,2470.777,2023-7-01T07:59:03Z
2023-07-01T05:59:50Z,42.805,6.029,13.3025,4.60086,2470.777,2023-7-01T08:02:06Z
2023-07-01T06:02:53Z,42.805,6.029,13.3032,4.60086,2470.777,2023-7-01T08:05:09Z
2023-07-01T06:05:57Z,42.805,6.029,13.3028,4.60085,2470.763,2023-7-01T08:08:12Z
2023-07-01T06:09:00Z,42.805,6.029,13.3027,4.60084,2470.74,2023-7-01T08:11:15Z
2023-07-01T06:12:03Z,42.805,6.029,13.3029,4.60085,2470.777,2023-7-01T08:14:18Z
2023-07-01T06:15:06Z,42.805,6.029,13.3026,4.60084,2470.763,2023-7-01T08:17:21Z
2023-07-01T06:18:09Z,42.805,6.029,13.3026,4.60084,2470.763,2023-7-01T08:20:24Z
2023-07-01T06:21:12Z,42.805,6.029,13.3024,4.60084,2470.763,2023-7-01T08:23:27Z
2023-07-01T06:24:15Z,42.805,6.029,13.3027,4.60084,2470.777,2023-7-01T08:26:31Z
2023-07-01T06:27:18Z,42.805,6.029,13.3026,4.60082,2470.777,2023-7-01T08:29:34Z
2023-07-01T06:30:21Z,42.805,6.029,13.3029,4.60082,2470.74,2023-7-01T08:32:37Z
2023-07-01T06:33:24Z,42.805,6.029,13.3023,4.60084,2470.74,2023-7-01T08:35:40Z
2023-07-01T06:36:27Z,42.805,6.029,13.3027,4.60082,2470.763,2023-7-01T08:38:43Z
2023-07-01T06:39:30Z,42.805,6.029,13.3026,4.60083,2470.74,2023-7-01T08:41:46Z
2023-07-01T06:42:34Z,42.805,6.029,13.3024,4.60084,2470.754,2023-7-01T08:44:49Z
2023-07-01T06:45:37Z,42.805,6.029,13.3029,4.60082,2470.754,2023-7-01T08:47:52Z
2023-07-01T06:48:40Z,42.805,6.029,13.3026,4.60083,2470.754,2023-7-01T08:50:55Z
2023-07-01T06:51:43Z,42.805,6.029,13.3025,4.60081,2470.763,2023-7-01T08:53:58Z
2023-07-01T06:54:46Z,42.805,6.029,13.3026,4.60082,2470.754,2023-7-01T08:57:01Z
2023-07-01T06:57:49Z,42.805,6.029,13.3024,4.60082,2470.754,2023-7-01T09:00:04Z
2023-07-01T07:00:52Z,42.805,6.029,13.3026,4.60082,2470.74,2023-7-01T09:03:07Z
2023-07-01T07:03:55Z,42.805,6.029,13.3027,4.60082,2470.726,2023-7-01T09:06:11Z
2023-07-01T07:06:58Z,42.805,6.029,13.3022,4.60082,2470.74,2023-7-01T09:09:14Z
2023-07-01T07:10:01Z,42.805,6.029,13.3025,4.60082,2470.763,2023-7-01T09:12:17Z
2023-07-01T07:13:04Z,42.805,6.029,13.3031,4.60082,2470.74,2023-7-01T09:15:20Z
2023-07-01T07:16:07Z,42.805,6.029,13.3029,4.60082,2470.763,2023-7-01T09:18:23Z
2023-07-01T07:19:10Z,42.805,6.029,13.3025,4.60082,2470.717,2023-7-01T09:21:26Z
2023-07-01T07:22:14Z,42.805,6.029,13.3023,4.60084,2470.74,2023-7-01T09:24:29Z
2023-07-01T07:25:17Z,42.805,6.029,13.3027,4.60082,2470.73,2023-7-01T09:27:32Z
2023-07-01T07:28:20Z,42.805,6.029,13.3029,4.60082,2470.73,2023-7-01T09:30:35Z
2023-07-01T07:31:23Z,42.805,6.029,13.3024,4.60081,2470.74,2023-7-01T09:33:38Z
2023-07-01T07:34:26Z,42.805,6.029,13.3024,4.60082,2470.74,2023-7-01T09:36:41Z
2023-07-01T07:37:29Z,42.805,6.029,13.3023,4.60082,2470.693,2023-7-01T09:39:44Z
2023-07-01T07:40:32Z,42.805,6.029,13.3029,4.60082,2470.707,2023-7-01T09:42:48Z
2023-07-01T07:43:35Z,42.805,6.029,13.3024,4.60082,2470.73,2023-7-01T09:45:51Z
2023-07-01T07:46:38Z,42.805,6.029,13.3026,4.60081,2470.717,2023-7-01T09:48:54Z
2023-07-01T07:49:41Z,42.805,6.029,13.3024,4.60082,2470.74,2023-7-01T09:51:57Z
2023-07-01T07:52:44Z,42.805,6.029,13.3026,4.60081,2470.74,2023-7-01T09:55:00Z
2023-07-01T07:55:47Z,42.805,6.029,13.3022,4.60082,2470.693,2023-7-01T09:58:03Z
2023-07-01T07:58:50Z,42.805,6.029,13.3026,4.60082,2470.717,2023-7-01T10:01:06Z
2023-07-01T08:01:54Z,42.805,6.029,13.3023,4.60082,2470.73,2023-7-01T10:04:09Z
2023-07-01T08:04:57Z,42.805,6.029,13.3024,4.60082,2470.717,2023-7-01T10:07:12Z
2023-07-01T08:08:00Z,42.805,6.029,13.3024,4.60081,2470.693,2023-7-01T10:10:15Z
2023-07-01T08:11:03Z,42.805,6.029,13.3026,4.60082,2470.693,2023-7-01T10:13:18Z
2023-07-01T08:14:06Z,42.805,6.029,13.3025,4.60082,2470.717,2023-7-01T10:16:21Z
2023-07-01T08:17:09Z,42.805,6.029,13.3026,4.60081,2470.707,2023-7-01T10:19:24Z
2023-07-01T08:20:12Z,42.805,6.029,13.3026,4.60081,2470.717,2023-7-01T10:22:28Z
2023-07-01T08:23:15Z,42.805,6.029,13.3022,4.60081,2470.693,2023-7-01T10:25:31Z
2023-07-01T08:26:18Z,42.805,6.029,13.3025,4.60081,2470.693,2023-7-01T10:28:34Z
2023-07-01T08:29:21Z,42.805,6.029,13.3024,4.60081,2470.67,2023-7-01T10:31:37Z
2023-07-01T08:32:23Z,42.805,6.029,13.3028,4.60081,2470.684,2023-7-01T10:34:39Z
2023-07-01T08:35:27Z,42.805,6.029,13.3025,4.60081,2470.693,2023-7-01T10:37:42Z
2023-07-01T08:38:30Z,42.805,6.029,13.3026,4.60082,2470.693,2023-7-01T10:40:45Z
2023-07-01T08:41:33Z,42.805,6.029,13.3026,4.60081,2470.67,2023-7-01T10:43:48Z
2023-07-01T08:44:36Z,42.805,6.029,13.3026,4.60082,2470.67,2023-7-01T10:46:51Z
2023-07-01T08:47:39Z,42.805,6.029,13.3024,4.60081,2470.707,2023-7-01T10:49:54Z
2023-07-01T08:50:42Z,42.805,6.029,13.3024,4.60081,2470.67,2023-7-01T10:52:57Z
2023-07-01T08:53:45Z,42.805,6.029,13.3026,4.60081,2470.684,2023-7-01T10:56:01Z
2023-07-01T08:56:48Z,42.805,6.029,13.3024,4.60081,2470.646,2023-7-01T10:59:04Z
2023-07-01T08:59:51Z,42.805,6.029,13.3028,4.60081,2470.646,2023-7-01T11:02:07Z
2023-07-01T09:02:54Z,42.805,6.029,13.3026,4.60083,2470.661,2023-7-01T11:05:10Z
2023-07-01T09:05:57Z,42.805,6.029,13.3029,4.60081,2470.646,2023-7-01T11:08:13Z
2023-07-01T09:09:00Z,42.805,6.029,13.3025,4.60081,2470.646,2023-7-01T11:11:16Z
2023-07-01T09:12:04Z,42.805,6.029,13.3021,4.60081,2470.67,2023-7-01T11:14:19Z
2023-07-01T09:15:07Z,42.805,6.029,13.3026,4.60081,2470.693,2023-7-01T11:17:22Z
2023-07-01T09:18:10Z,42.805,6.029,13.3024,4.60081,2470.661,2023-7-01T11:20:25Z
2023-07-01T09:21:13Z,42.805,6.029,13.3025,4.60081,2470.661,2023-7-01T11:23:28Z
2023-07-01T09:24:16Z,42.805,6.029,13.3024,4.60081,2470.646,2023-7-01T11:26:31Z
2023-07-01T09:27:19Z,42.805,6.029,13.3026,4.60083,2470.684,2023-7-01T11:29:34Z
2023-07-01T09:30:22Z,42.805,6.029,13.3026,4.60081,2470.646,2023-7-01T11:32:38Z
2023-07-01T09:33:25Z,42.805,6.029,13.3027,4.60081,2470.624,2023-7-01T11:35:41Z
2023-07-01T09:36:28Z,42.805,6.029,13.3023,4.60081,2470.624,2023-7-01T11:38:44Z
2023-07-01T09:39:31Z,42.805,6.029,13.3026,4.60081,2470.661,2023-7-01T11:41:47Z
2023-07-01T09:42:34Z,42.805,6.029,13.3026,4.60081,2470.646,2023-7-01T11:44:50Z
2023-07-01T09:45:37Z,42.805,6.029,13.3025,4.60081,2470.646,2023-7-01T11:47:53Z
2023-07-01T09:48:41Z,42.805,6.029,13.3028,4.60082,2470.637,2023-7-01T11:50:56Z
2023-07-01T09:51:44Z,42.805,6.029,13.3026,4.60080,2470.646,2023-7-01T11:53:59Z
2023-07-01T09:54:47Z,42.805,6.029,13.3024,4.60081,2470.624,2023-7-01T11:57:02Z
2023-07-01T09:57:50Z,42.805,6.029,13.3023,4.60081,2470.624,2023-7-01T12:00:05Z
2023-07-01T10:00:53Z,42.805,6.029,13.3022,4.60081,2470.624,2023-7-01T12:03:08Z
2023-07-01T10:03:56Z,42.805,6.029,13.3025,4.60082,2470.614,2023-7-01T12:06:11Z
2023-07-01T10:06:59Z,42.805,6.029,13.3024,4.60081,2470.614,2023-7-01T12:09:14Z
2023-07-01T10:10:02Z,42.805,6.029,13.3029,4.60081,2470.661,2023-7-01T12:12:18Z
2023-07-01T10:13:05Z,42.805,6.029,13.3022,4.60081,2470.637,2023-7-01T12:15:21Z
2023-07-01T10:16:08Z,42.805,6.029,13.3027,4.60081,2470.624,2023-7-01T12:18:24Z
2023-07-01T10:19:11Z,42.805,6.029,13.3023,4.60081,2470.6,2023-7-01T12:21:27Z
2023-07-01T10:22:14Z,42.805,6.029,13.3024,4.60081,2470.624,2023-7-01T12:24:30Z
2023-07-01T10:25:18Z,42.805,6.029,13.3024,4.60081,2470.624,2023-7-01T12:27:33Z
2023-07-01T10:28:21Z,42.805,6.029,13.3025,4.60081,2470.624,2023-7-01T12:30:36Z
2023-07-01T10:31:22Z,42.805,6.029,13.3029,4.60081,2470.6,2023-7-01T12:33:38Z
2023-07-01T10:34:25Z,42.805,6.029,13.3026,4.60081,2470.624,2023-7-01T12:36:41Z
2023-07-01T10:37:28Z,42.805,6.029,13.3025,4.60081,2470.553,2023-7-01T12:39:44Z
2023-07-01T10:40:31Z,42.805,6.029,13.3026,4.60081,2470.6,2023-7-01T12:42:47Z
2023-07-01T10:43:34Z,42.805,6.029,13.3025,4.60081,2470.6,2023-7-01T12:45:50Z
2023-07-01T10:46:37Z,42.805,6.029,13.3021,4.60082,2470.614,2023-7-01T12:48:53Z
2023-07-01T10:49:41Z,42.805,6.029,13.3019,4.60081,2470.6,2023-7-01T12:51:56Z
2023-07-01T10:52:44Z,42.805,6.029,13.3022,4.60081,2470.646,2023-7-01T12:54:59Z
2023-07-01T10:55:47Z,42.805,6.029,13.3024,4.60081,2470.661,2023-7-01T12:58:02Z
2023-07-01T10:58:50Z,42.805,6.029,13.3024,4.60081,2470.624,2023-7-01T13:01:05Z
2023-07-01T11:01:53Z,42.805,6.029,13.3026,4.60081,2470.624,2023-7-01T13:04:08Z
2023-07-01T11:04:56Z,42.805,6.029,13.3029,4.60081,2470.6,2023-7-01T13:07:12Z
2023-07-01T11:07:59Z,42.805,6.029,13.3024,4.60081,2470.614,2023-7-01T13:10:15Z
2023-07-01T11:11:02Z,42.805,6.029,13.3021,4.60081,2470.586,2023-7-01T13:13:18Z
2023-07-01T11:14:05Z,42.805,6.029,13.3026,4.60081,2470.577,2023-7-01T13:16:21Z
2023-07-01T11:17:08Z,42.805,6.029,13.3024,4.60082,2470.624,2023-7-01T13:19:24Z
2023-07-01T11:20:11Z,42.805,6.029,13.3024,4.60081,2470.6,2023-7-01T13:22:27Z
2023-07-01T11:23:15Z,42.805,6.029,13.3028,4.60081,2470.6,2023-7-01T13:25:30Z
2023-07-01T11:26:18Z,42.805,6.029,13.3030,4.60081,2470.6,2023-7-01T13:28:33Z
2023-07-01T11:29:21Z,42.805,6.029,13.3025,4.60081,2470.614,2023-7-01T13:31:36Z
2023-07-01T11:32:24Z,42.805,6.029,13.3029,4.60081,2470.577,2023-7-01T13:34:39Z
2023-07-01T11:35:27Z,42.805,6.029,13.3027,4.60081,2470.624,2023-7-01T13:37:42Z
2023-07-01T11:38:30Z,42.805,6.029,13.3026,4.60081,2470.614,2023-7-01T13:40:45Z
2023-07-01T11:41:33Z,42.805,6.029,13.3026,4.60081,2470.6,2023-7-01T13:43:49Z
2023-07-01T11:44:36Z,42.805,6.029,13.3023,4.60082,2470.553,2023-7-01T13:46:52Z
2023-07-01T11:47:39Z,42.805,6.029,13.3026,4.60083,2470.591,2023-7-01T13:49:55Z
2023-07-01T11:50:42Z,42.805,6.029,13.3029,4.60087,2470.614,2023-7-01T13:52:58Z
2023-07-01T11:53:45Z,42.805,6.029,13.3025,4.60081,2470.553,2023-7-01T13:56:01Z
2023-07-01T11:56:48Z,42.805,6.029,13.3024,4.60082,2470.577,2023-7-01T13:59:04Z
2023-07-01T11:59:52Z,42.805,6.029,13.3024,4.60083,2470.577,2023-7-01T14:02:07Z
2023-07-01T12:02:55Z,42.805,6.029,13.3027,4.60082,2470.591,2023-7-01T14:05:10Z
2023-07-01T12:05:58Z,42.805,6.029,13.3028,4.60081,2470.6,2023-7-01T14:08:13Z
2023-07-01T12:09:01Z,42.805,6.029,13.3024,4.60081,2470.6,2023-7-01T14:11:16Z
2023-07-01T12:12:04Z,42.805,6.029,13.3025,4.60081,2470.567,2023-7-01T14:14:19Z
2023-07-01T12:15:07Z,42.805,6.029,13.3026,4.60081,2470.577,2023-7-01T14:17:22Z
2023-07-01T12:18:10Z,42.805,6.029,13.3023,4.60082,2470.6,2023-7-01T14:20:26Z
2023-07-01T12:21:13Z,42.805,6.029,13.3027,4.60082,2470.577,2023-7-01T14:23:29Z
2023-07-01T12:24:16Z,42.805,6.029,13.3025,4.60083,2470.6,2023-7-01T14:26:32Z
2023-07-01T12:27:19Z,42.805,6.029,13.3026,4.60082,2470.614,2023-7-01T14:29:35Z
2023-07-01T12:30:22Z,42.805,6.029,13.3027,4.60084,2470.6,2023-7-01T14:32:38Z
2023-07-01T12:33:25Z,42.805,6.029,13.3029,4.60082,2470.577,2023-7-01T14:35:41Z
2023-07-01T12:36:29Z,42.805,6.029,13.3025,4.60082,2470.577,2023-7-01T14:38:44Z
2023-07-01T12:39:32Z,42.805,6.029,13.3025,4.60082,2470.577,2023-7-01T14:41:47Z
2023-07-01T12:42:35Z,42.805,6.029,13.3021,4.60084,2470.614,2023-7-01T14:44:50Z
2023-07-01T12:45:38Z,42.805,6.029,13.3024,4.60083,2470.614,2023-7-01T14:47:53Z
2023-07-01T12:48:41Z,42.805,6.029,13.3025,4.60083,2470.6,2023-7-01T14:50:56Z
2023-07-01T12:51:44Z,42.805,6.029,13.3026,4.60084,2470.577,2023-7-01T14:53:59Z
2023-07-01T12:54:47Z,42.805,6.029,13.3029,4.60083,2470.6,2023-7-01T14:57:03Z
2023-07-01T12:57:50Z,42.805,6.029,13.3025,4.60084,2470.624,2023-7-01T15:00:06Z
2023-07-01T13:00:53Z,42.805,6.029,13.3027,4.60082,2470.624,2023-7-01T15:03:09Z
2023-07-01T13:03:56Z,42.805,6.029,13.3026,4.60083,2470.577,2023-7-01T15:06:12Z
2023-07-01T13:06:59Z,42.805,6.029,13.3025,4.60082,2470.614,2023-7-01T15:09:15Z
2023-07-01T13:10:02Z,42.805,6.029,13.3026,4.60084,2470.637,2023-7-01T15:12:18Z
2023-07-01T13:13:06Z,42.805,6.029,13.3022,4.60084,2470.6,2023-7-01T15:15:21Z
2023-07-01T13:16:09Z,42.805,6.029,13.3026,4.60084,2470.646,2023-7-01T15:18:24Z
2023-07-01T13:19:12Z,42.805,6.029,13.3024,4.60084,2470.6,2023-7-01T15:21:27Z
2023-07-01T13:22:15Z,42.805,6.029,13.3023,4.60084,2470.614,2023-7-01T15:24:30Z
2023-07-01T13:25:18Z,42.805,6.029,13.3029,4.60082,2470.624,2023-7-01T15:27:33Z
2023-07-01T13:28:21Z,42.805,6.029,13.3026,4.60082,2470.624,2023-7-01T15:30:36Z
2023-07-01T13:31:24Z,42.805,6.029,13.3025,4.60084,2470.6,2023-7-01T15:33:40Z
2023-07-01T13:34:27Z,42.805,6.029,13.3022,4.60084,2470.614,2023-7-01T15:36:43Z
2023-07-01T13:37:30Z,42.805,6.029,13.3026,4.60082,2470.646,2023-7-01T15:39:46Z
2023-07-01T13:40:33Z,42.805,6.029,13.3027,4.60083,2470.637,2023-7-01T15:42:49Z
2023-07-01T13:43:36Z,42.805,6.029,13.3023,4.60084,2470.624,2023-7-01T15:45:52Z
2023-07-01T13:46:40Z,42.805,6.029,13.3029,4.60082,2470.6,2023-7-01T15:48:55Z
2023-07-01T13:49:43Z,42.805,6.029,13.3024,4.60084,2470.624,2023-7-01T15:51:58Z
2023-07-01T13:52:46Z,42.805,6.029,13.3028,4.60084,2470.624,2023-7-01T15:55:01Z
2023-07-01T13:55:49Z,42.805,6.029,13.3025,4.60084,2470.637,2023-7-01T15:58:04Z
2023-07-01T13:58:52Z,42.805,6.029,13.3026,4.60083,2470.6,2023-7-01T16:01:07Z
2023-07-01T14:01:55Z,42.805,6.029,13.3023,4.60083,2470.661,2023-7-01T16:04:10Z
2023-07-01T14:04:58Z,42.805,6.029,13.3025,4.60084,2470.661,2023-7-01T16:07:13Z
2023-07-01T14:08:01Z,42.805,6.029,13.3029,4.60084,2470.624,2023-7-01T16:10:17Z
2023-07-01T14:11:04Z,42.805,6.029,13.3027,4.60084,2470.646,2023-7-01T16:13:20Z
2023-07-01T14:14:07Z,42.805,6.029,13.3025,4.60084,2470.646,2023-7-01T16:16:23Z
2023-07-01T14:17:10Z,42.805,6.029,13.3026,4.60084,2470.646,2023-7-01T16:19:26Z
2023-07-01T14:20:13Z,42.805,6.029,13.3029,4.60082,2470.646,2023-7-01T16:22:29Z
2023-07-01T14:23:17Z,42.805,6.029,13.3027,4.60083,2470.646,2023-7-01T16:25:32Z
2023-07-01T14:26:20Z,42.805,6.029,13.3026,4.60082,2470.646,2023-7-01T16:28:35Z
2023-07-01T14:29:23Z,42.805,6.029,13.3027,4.60083,2470.624,2023-7-01T16:31:38Z
2023-07-01T14:32:26Z,42.805,6.029,13.3026,4.60084,2470.646,2023-7-01T16:34:41Z
2023-07-01T14:35:29Z,42.805,6.029,13.3025,4.60082,2470.67,2023-7-01T16:37:44Z
2023-07-01T14:38:32Z,42.805,6.029,13.3027,4.60084,2470.684,2023-7-01T16:40:47Z
2023-07-01T14:41:35Z,42.805,6.029,13.3029,4.60084,2470.684,2023-7-01T16:43:51Z
2023-07-01T14:44:38Z,42.805,6.029,13.3024,4.60082,2470.684,2023-7-01T16:46:54Z
2023-07-01T14:47:41Z,42.805,6.029,13.3027,4.60084,2470.67,2023-7-01T16:49:57Z
2023-07-01T14:50:44Z,42.805,6.029,13.3026,4.60085,2470.684,2023-7-01T16:53:00Z
2023-07-01T14:53:47Z,42.805,6.029,13.3028,4.60084,2470.684,2023-7-01T16:56:03Z
2023-07-01T14:56:50Z,42.805,6.029,13.3029,4.60084,2470.67,2023-7-01T16:59:06Z
2023-07-01T14:59:53Z,42.805,6.029,13.3026,4.60083,2470.693,2023-7-01T17:02:09Z
2023-07-01T15:02:57Z,42.805,6.029,13.3029,4.60083,2470.717,2023-7-01T17:05:12Z
2023-07-01T15:06:00Z,42.805,6.029,13.3031,4.60083,2470.693,2023-7-01T17:08:15Z
2023-07-01T15:09:03Z,42.805,6.029,13.3026,4.60084,2470.707,2023-7-01T17:11:18Z
2023-07-01T15:12:06Z,42.805,6.029,13.3029,4.60084,2470.707,2023-7-01T17:14:21Z
2023-07-01T15:15:09Z,42.805,6.029,13.3026,4.60084,2470.684,2023-7-01T17:17:24Z